Reaktor Hello World (43743 NORAD) Tracking and Keplerian Element Data

This shows tracking and keplerian element data for the satellite.

Feedback or suggestion? Click here.




ElementValue
Catalog43743
NameReaktor Hello World
Epoch Orbit3406
Epoch Day191.53231613
Epoch Year2019
RAAN261.5061
Inclination97.4589
Eccentricity0.0016617
Argument of Perigee257.7001
Mean Anonmoly211.4184
Mean Motion15.26635929
Decay Rate6.49E-06
L11 43743U 18096AA 19191.53231613 .00000649 00000-0 27529-4 0 9998
L22 43743 97.4589 261.5061 0016617 257.7001 211.4184 15.26635929 34061

Live tracking and technical data element details for Reaktor Hello World (NORAD 43743). Reaktor Hello World can be tracked NOW for your location showing map with azimuth and elevation plus other details from your city location.

Track the satellite on the map from your city or location and see movement details for azimuth, elevation, latitude, longitude, range, height, and movement on the map or in text.







IsCatalogInMostPopularTable: catalog: 43743, numindb: 219
Update: records affected: 1



GetName: 43743 Reaktor Hello World

Hit Count: updated at: Tue, 16 Jul 2019 20:17:58 GMT